Theta_e
295 294 294 294 293 293 292 292 292 291 291 291 291 291 291 291 290 289 288 288 287 287 286 286 286 286 286 286 286 286 285 285 285 284 284 284 284 284 283 283 283 282
295 294 294 293 293 293 292 292 292 292 291 291 291 291 291 290 290 289 288 288 287 287 286 286 286 286 286 286 286 286 285 285 284 284 284 284 284 284 283 283 283 282
295 294 294 293 293 293 292 292 292 292 292 291 291 291 291 290 290 289 289 288 287 287 286 285 285 286 286 286 286 286 286 285 285 284 284 284 284 284 283 283 282 282
294 294 294 293 293 293 292 291 291 291 292 291 291 291 291 290 290 289 289 288 287 287 286 285 285 286 286 286 286 286 285 285 284 284 284 284 284 284 283 283 282 282
294 294 294 293 293 292 292 291 291 291 291 291 291 291 290 290 290 289 288 288 287 287 286 285 285 285 286 285 285 285 284 284 283 283 284 284 283 283 283 282 282 281
294 294 293 293 293 292 292 291 291 291 291 291 291 290 290 290 290 289 289 288 287 287 286 285 285 285 285 285 284 284 284 283 283 283 284 283 283 283 282 282 281 281
294 294 293 293 292 292 292 291 291 291 290 290 290 290 290 290 289 289 289 288 287 287 286 285 285 285 285 284 284 283 283 283 283 283 283 283 282 282 282 281 281 280
294 293 293 292 292 292 291 291 291 290 290 289 289 289 289 289 289 289 288 288 287 287 286 285 285 285 284 284 283 283 282 282 282 283 283 282 282 282 281 281 280 280
293 293 292 292 292 291 291 291 291 290 290 289 289 289 288 288 289 288 288 288 287 286 285 285 285 284 284 283 283 283 282 282 282 282 283 283 282 282 281 280 280 279
293 292 292 292 291 291 291 291 290 290 289 289 288 288 288 288 287 287 287 287 286 286 285 284 284 283 283 282 282 282 283 283 283 282 282 282 282 282 281 280 279 278
292 292 292 291 291 291 291 291 290 290 289 289 288 288 287 287 287 286 286 286 286 285 284 284 283 283 283 282 282 282 282 283 283 282 282 282 282 281 280 280 279 278
292 292 291 291 291 291 291 290 290 289 289 289 288 287 287 286 286 286 286 285 285 285 284 284 283 283 282 282 282 282 282 282 282 282 282 281 281 280 280 279 278 277
291 291 291 291 291 291 290 290 289 289 289 288 288 287 286 286 286 286 286 285 285 284 284 283 283 282 282 282 282 281 281 281 281 281 281 280 280 279 279 278 277 277
292 292 291 291 291 290 290 289 289 289 288 288 287 287 286 286 285 285 285 284 284 284 283 283 282 282 281 281 281 281 281 281 280 280 280 279 279 278 278 277 276 276
292 291 291 290 290 290 289 289 288 288 287 287 286 286 286 285 285 285 284 283 283 283 283 282 282 281 281 281 280 280 280 280 280 280 279 279 278 277 277 276 276 275
291 291 290 290 289 289 289 288 288 287 287 286 286 285 285 284 284 284 283 283 283 282 281 281 281 281 281 280 280 280 280 280 279 279 278 278 277 276 275 275 275 275
291 290 290 289 289 289 288 288 287 286 286 285 285 284 284 284 283 283 282 282 282 281 281 280 280 280 280 280 279 280 280 280 279 278 277 277 276 276 275 275 275 275
291 290 289 289 288 288 288 287 286 285 285 284 284 283 283 283 282 282 282 281 281 280 280 279 279 280 279 279 279 279 279 279 278 278 277 276 276 276 275 275 275 275
290 289 289 288 288 287 287 286 285 284 284 283 283 283 282 282 281 281 280 280 280 279 279 278 279 279 278 278 278 278 278 278 278 278 277 276 276 275 275 275 275 275
289 289 288 288 287 287 285 285 284 283 283 283 282 281 281 280 280 280 279 279 279 278 278 278 278 278 278 278 278 277 277 277 277 277 277 276 276 275 275 276 276 275
289 288 287 287 286 285 284 283 283 282 282 282 281 280 280 280 279 279 279 278 278 278 277 277 278 278 277 278 279 278 277 277 277 276 276 276 276 275 276 276 276 275
288 287 287 286 285 284 283 282 282 282 281 281 280 279 279 279 278 278 278 277 277 277 277 277 278 278 277 278 280 280 279 278 277 276 276 276 276 276 276 275 275 274
287 287 286 285 284 283 282 282 281 281 280 280 279 278 278 278 277 277 277 277 276 276 276 276 277 277 278 279 280 280 280 279 277 276 276 276 275 275 275 274 274 274
287 286 285 284 283 282 282 281 280 280 279 279 279 278 277 277 277 277 276 276 276 276 276 277 277 277 279 280 280 280 280 279 277 277 276 275 275 275 274 274 273 273
286 285 285 284 282 282 281 281 280 279 279 278 278 277 277 276 276 276 275 275 275 275 276 277 277 278 279 280 280 280 279 278 277 276 276 275 275 274 274 273 273 273
285 284 284 283 282 281 281 280 279 279 278 277 277 277 276 276 275 275 274 274 274 275 275 276 276 277 279 280 280 280 279 277 276 276 275 275 274 273 273 273 273 274
Wind_Speed
44 44 43 43 43 42 42 44 44 44 45 45 46 47 47 47 46 44 43 40 38 36 34 31 29 27 26 24 22 20 18 16 14 12 11 9 8 9 10 11 12 12
45 44 43 42 42 42 43 44 45 45 46 46 46 46 46 46 45 45 44 42 40 38 35 32 30 29 27 25 23 22 20 18 16 14 13 11 10 11 12 12 12 12
45 45 45 45 45 44 43 42 43 45 45 45 45 45 45 46 45 45 45 44 42 39 36 34 32 31 29 27 25 23 21 20 18 16 15 13 12 12 12 13 13 12
46 47 47 46 45 42 40 40 42 44 45 45 46 46 46 46 45 45 45 45 43 41 38 36 34 33 31 29 27 25 23 21 19 18 16 15 13 13 13 13 13 13
46 47 46 45 43 40 39 41 43 45 46 47 47 47 46 46 46 46 46 46 44 42 40 38 36 35 33 31 29 27 25 23 21 20 18 16 15 15 14 14 13 13
45 46 46 45 43 40 40 43 44 44 45 46 47 48 48 47 47 48 48 47 46 44 42 40 39 37 35 33 31 28 27 25 23 21 19 17 16 16 15 15 14 14
45 46 46 44 43 42 42 44 43 43 44 44 44 47 48 49 49 49 49 49 47 45 44 43 41 40 37 35 32 31 28 26 24 22 20 18 17 17 17 16 15 14
45 44 43 43 43 42 43 44 43 43 43 43 43 45 47 49 50 50 50 49 48 47 45 44 43 41 39 36 35 32 29 27 25 23 21 20 19 18 18 16 15 15
42 41 41 42 43 43 44 45 44 43 43 43 44 44 45 47 48 49 49 49 48 47 46 45 43 42 39 38 36 33 30 28 26 24 22 21 20 19 18 17 16 16
40 40 40 41 43 45 46 45 43 42 42 43 43 43 44 45 45 46 48 48 47 47 46 45 44 42 40 38 36 33 30 28 26 24 23 22 20 19 18 17 17 17
41 40 41 43 45 46 46 45 43 42 43 43 43 42 44 44 44 45 46 47 47 47 46 45 44 42 40 38 36 33 30 28 26 25 24 22 20 19 19 19 18 18
41 41 43 45 47 47 46 45 44 43 43 44 44 43 43 43 45 46 46 46 46 45 45 44 43 42 40 38 36 33 30 28 26 25 24 22 21 20 19 19 18 17
42 44 46 47 47 46 45 44 44 44 44 45 45 44 44 44 45 47 47 46 45 44 44 44 43 41 40 38 36 34 31 29 28 26 24 23 22 21 19 18 18 17
44 46 47 46 44 42 42 42 43 44 45 45 44 45 45 46 46 46 46 45 44 44 44 43 42 41 40 38 36 34 32 30 29 27 25 24 22 21 19 18 17 16
43 44 43 41 40 40 40 41 42 43 43 43 44 45 45 46 46 46 45 44 44 43 43 42 42 41 41 39 37 35 33 31 29 28 26 25 23 21 19 18 17 16
41 40 39 39 40 41 41 42 42 42 43 43 44 45 44 45 45 45 45 45 44 43 42 42 42 41 41 39 36 34 33 31 30 28 26 24 22 21 19 18 16 15
38 37 38 39 40 41 41 42 42 42 43 43 43 43 43 44 45 45 44 45 44 44 43 42 41 41 39 37 35 33 32 31 30 28 26 24 23 21 20 17 15 14
37 37 38 40 40 41 42 42 42 42 42 42 42 43 43 44 45 45 44 43 42 42 42 41 41 40 38 36 34 33 32 31 30 28 27 25 23 21 19 16 15 14
36 36 38 39 40 41 41 40 41 41 42 43 43 43 43 43 43 43 42 42 41 41 41 40 40 39 36 34 33 32 32 31 30 29 27 25 23 21 19 17 15 15
35 36 37 38 38 39 39 39 41 41 41 41 41 41 41 42 42 42 41 41 41 41 40 39 40 38 36 33 32 31 31 31 30 28 26 24 23 20 19 17 16 14
36 37 37 36 36 37 37 38 39 39 39 40 40 41 42 42 42 42 41 41 41 40 39 39 39 38 36 34 32 30 30 30 29 27 24 23 21 19 18 17 14 12
36 36 34 34 34 35 36 37 38 38 39 39 39 39 39 39 40 40 41 41 40 40 39 39 39 38 37 35 32 30 29 28 27 26 24 22 20 18 17 14 12 11
35 34 33 33 34 35 36 37 38 38 38 38 38 37 37 38 39 39 41 41 41 41 40 39 39 39 36 34 33 31 30 29 27 25 24 22 20 18 15 11 10 12
32 33 33 33 35 37 38 37 36 36 36 38 38 38 37 38 39 38 39 40 41 42 42 41 41 39 35 33 32 31 31 31 28 25 23 22 20 18 15 12 11 11
28 30 31 32 34 34 34 34 34 34 35 36 37 36 35 36 36 36 36 37 39 40 40 40 41 38 34 31 31 30 30 30 28 25 23 22 20 18 15 12 11 10
26 28 29 30 30 29 29 31 32 32 33 34 33 33 32 33 33 34 34 34 36 37 37 37 39 37 32 29 30 29 29 30 29 26 25 24 21 19 16 13 11 11
Wind_Direction
214 214 215 215 215 214 210 208 206 206 206 206 207 208 209 210 211 209 209 209 209 208 207 205 204 202 201 201 201 200 200 200 200 201 202 201 202 206 210 214 220 225
215 215 215 216 217 216 214 211 208 207 208 209 209 209 209 210 209 208 208 208 208 208 206 205 203 203 202 202 201 201 200 201 202 204 205 204 204 208 211 213 217 224
215 215 215 217 217 217 216 213 210 209 209 209 210 210 209 209 209 208 208 208 207 207 205 204 203 203 203 204 203 203 204 205 205 205 205 204 206 209 211 214 218 223
215 216 216 218 218 218 216 214 212 210 209 209 210 210 209 209 208 207 207 207 207 205 204 203 203 203 203 204 204 204 205 206 206 205 204 203 205 209 210 214 219 222
217 217 217 218 218 217 216 215 215 212 209 209 209 208 208 208 207 206 206 206 206 205 203 202 203 203 203 203 204 205 204 204 203 203 204 203 204 207 209 212 217 222
217 217 217 217 217 217 216 217 217 214 212 210 207 206 207 207 207 206 205 204 204 204 203 202 202 203 203 203 204 205 205 204 202 202 203 203 202 204 208 212 216 221
218 217 216 215 215 216 217 218 217 216 214 211 208 206 205 205 206 206 205 203 202 203 203 203 203 202 203 203 203 204 204 203 202 202 201 200 200 203 206 211 216 220
218 217 215 214 214 214 217 218 218 216 214 212 210 208 206 205 205 204 203 202 202 202 202 203 203 203 203 203 203 203 201 201 201 200 199 199 199 203 207 210 215 221
218 216 215 214 213 214 216 218 218 216 213 212 211 209 206 206 205 203 201 201 201 201 201 202 203 203 203 203 203 203 201 200 201 200 201 201 201 203 206 210 214 220
217 216 214 213 213 215 216 216 216 214 213 212 211 208 206 205 205 203 201 200 199 200 200 201 202 203 203 203 204 204 203 202 201 201 202 203 204 204 205 210 215 219
216 214 213 213 214 215 215 215 213 212 211 210 209 209 207 204 202 202 202 200 199 200 200 200 202 203 203 203 204 204 204 204 202 201 202 202 203 204 206 211 216 220
215 213 214 215 215 215 214 213 211 210 210 209 207 208 206 203 202 201 202 201 201 201 200 200 202 203 203 204 203 202 202 202 201 201 201 201 202 204 208 213 216 221
214 214 215 216 216 215 213 211 209 208 208 207 206 205 204 203 203 201 201 202 202 201 202 202 202 203 204 204 203 202 200 200 200 199 199 199 202 205 208 214 219 221
216 216 216 216 215 214 212 210 208 207 207 205 204 203 203 204 203 202 200 200 201 202 203 203 203 203 203 203 202 201 200 199 199 198 197 198 200 205 208 212 219 222
217 217 216 215 213 212 210 209 207 206 204 203 202 202 203 203 203 202 200 199 200 202 202 203 203 204 204 203 202 200 199 199 199 197 197 198 198 201 206 211 217 222
217 216 213 211 210 209 209 207 205 204 202 201 201 201 200 201 201 201 200 199 199 199 201 202 203 204 204 204 203 201 199 198 197 197 196 197 196 197 202 208 215 222
214 212 210 209 208 207 207 205 203 201 200 199 199 198 199 199 199 199 200 200 199 199 200 200 202 204 204 204 203 202 201 197 195 195 194 195 197 197 200 205 208 216
211 208 207 207 206 205 205 203 201 199 197 197 197 197 197 197 198 199 199 200 199 199 199 199 201 203 202 201 202 202 202 199 195 194 193 195 198 198 199 199 200 205
208 205 205 205 204 204 202 199 198 196 196 196 196 196 195 195 197 198 198 198 198 198 198 199 201 202 199 198 199 200 200 199 196 196 195 196 197 198 197 195 196 199
206 205 205 204 203 201 198 196 196 196 196 195 194 193 193 194 195 196 196 198 198 198 198 199 201 200 196 195 195 196 199 198 197 196 195 197 197 196 196 195 196 199
205 204 203 202 200 197 195 195 195 194 194 194 193 193 194 194 195 195 196 196 197 197 197 198 201 198 193 192 191 191 194 196 195 194 193 195 195 195 197 198 197 198
205 202 201 198 195 193 193 194 194 194 193 192 192 192 193 194 194 195 195 195 196 197 196 198 200 196 191 191 190 186 188 191 193 192 191 192 193 193 196 198 199 204
205 201 198 195 192 192 193 194 194 193 192 190 189 190 191 193 194 195 196 196 195 196 196 197 198 193 189 189 189 185 186 189 190 190 190 192 192 192 195 197 203 211
205 201 198 194 193 194 194 194 193 192 192 191 190 190 191 193 194 194 195 196 196 197 198 198 197 191 187 188 187 185 186 188 188 187 187 190 190 193 202 205 205 212
208 203 200 197 196 197 195 193 191 191 190 190 191 191 192 192 193 193 194 196 198 198 199 200 196 189 186 187 185 184 187 188 185 183 184 188 190 192 199 203 202 210
210 205 203 200 198 197 195 193 191 190 188 188 189 190 191 191 192 193 195 196 198 198 199 199 195 187 184 186 183 183 188 187 184 183 185 186 189 191 192 193 197 205